Hourly Data Report for September 30, 2017

All times are specified in Local Standard Time (LST). Add 1 hour to adjust for Daylight Saving Time where and when it is observed.

MIRAMICHI RCS
NEW BRUNSWICK

47°00'34.000" N
65°27'54.000" W
33.00 m
8100989
71744
ACQ

Download Data

Hourly Data (September 2017)
Hourly Data Report for September 30, 2017
Temp Definition
°C
Dew Point Temp Definition
°C
Rel Hum Definition
%
Wind Dir Definition
10's deg

Wind Spd Definition
km/h
Visibility Definition
km
Stn Press Definition
kPa
Hmdx Definition


Wind Chill Definition


Weather Definition


TIME
00:00 5.6 2.1 78 31 5   101.49     LegendNANA
01:00 5.3 1.3 75 33 8   101.51     LegendNANA
02:00 4.5 1.2 79 33 8   101.56     LegendNANA
03:00 4.2 1.1 80 34 7   101.61     LegendNANA
04:00 3.8 1.0 82 35 6   101.64     LegendNANA
05:00 3.3 0.9 84 33 4   101.73     LegendNANA
06:00 3.3 0.9 84 32 5   101.81     LegendNANA
07:00 4.5 1.2 79 33 6   101.89     LegendNANA
08:00 5.3 1.1 74 35 6   101.95     LegendNANA
09:00 7.5 0.8 62 34 10   102.02     LegendNANA
10:00 9.2 1.5 58 3 12   102.03     LegendNANA
11:00 8.9 -0.4 52 34 9   102.05     LegendNANA
12:00 10.4 -0.3 47 33 6   102.03     LegendNANA
13:00 11.1 0.5 48 4 8   101.99     LegendNANA
14:00 11.8 -0.6 42 24 6   101.95     LegendNANA
15:00 12.7 0.7 44 24 6   101.92     LegendNANA
16:00 12.6 -0.6 40 30 5   101.89     LegendNANA
17:00 12.3 -0.5 41 29 5   101.89     LegendNANA
18:00 9.9 0.9 53 6 5   101.90     LegendNANA
19:00 7.2 1.9 69 8 4   101.94     LegendNANA
20:00 5.8 2.1 77 9 3   101.98     LegendNANA
21:00 5.0 2.2 82 9 2   101.96     LegendNANA
22:00 4.5 2.0 84 7 2   101.92     LegendNANA
23:00 2.3 0.9 91   0   101.89     LegendNANA

Notes on Data Quality.

Legend

  • E = Estimated
  • M = Missing
  • NA = Not Available
  • ‡ = Partner data that is not subject to review by the National Climate Archives
Date modified: